Hourly Data Report for January 07, 2020

TORONTO CITY
ONTARIO
Current Station Operator: ECCC - MSC

43°40'00.000" N
79°24'00.000" W
112.50 m
6158355
71508
XTO

Download Data

Hourly Data (January 2020)
Hourly Data Report for January 7, 2020
TIME
LST
Temp Definition
°C
Dew Point Definition
°C
Rel Hum Definition
%
Precip. Amount Definition
mm

Wind Dir Definition
10's deg

Wind Spd Definition
km/h
Visibility Definition
km
Stn Press Definition
kPa
Hmdx Definition


Wind Chill Definition


Weather Definition


00:00 -1.2 -8.3 59 0.0       100.15     LegendNANA
01:00 -1.7 -8.2 61 0.0       100.16     LegendNANA
02:00 -1.7 -8.4 60 0.0       100.20     LegendNANA
03:00 -1.6 -8.0 61 0.0       100.22     LegendNANA
04:00 -1.5 -7.3 65 0.0       100.18     LegendNANA
05:00 -2.8 -7.6 69 0.0       100.16     LegendNANA
06:00 -2.5 -7.2 70 0.0       100.13     LegendNANA
07:00 -2.9 -7.2 72 0.0       100.09     LegendNANA
08:00 -1.0 -4.8 76 0.0       100.03     LegendNANA
09:00 0.7 -3.3 75 0.0       100.00     LegendNANA
10:00 1.0 -3.2 73 0.0       100.09     LegendNANA
11:00 1.4 -4.3 66 0.0       100.04     LegendNANA
12:00 2.4 -3.9 63 0.0       99.92     LegendNANA
13:00 2.5 -3.3 65 0.0       99.79     LegendNANA
14:00 3.0 -2.8 66 0.0       99.73     LegendNANA
15:00 3.4 -1.1 72 0.0       99.71     LegendNANA
16:00 3.8 -1.5 69 0.0       99.69     LegendNANA
17:00 3.0 -1.3 73 0.0       99.68     LegendNANA
18:00 3.2 -0.7 76 0.0       99.65     LegendNANA
19:00 3.0 -1.4 73 0.0       99.61     LegendNANA
20:00 2.7 -1.1 76 0.0       99.55     LegendNANA
21:00 2.6 -2.3 70 0.0       99.54     LegendNANA
22:00 2.0 -2.3 73 0.0       99.54     LegendNANA
23:00 1.5 -2.6 74 0.0       99.50     LegendNANA

Notes on Data Quality.

Legend

  • E = Estimated
  • M = Missing
  • NA = Not Available*
  • [empty] = Indicates an unobserved value
Date modified: